Latest Weather Observations for Arlington Reef

IDQ60801

Issued at 9:32 pm EST Saturday 31 January 2015 (issued every 30 minutes, with the page automatically refreshed every 10 minutes)

About weather observations | Map of weather stations | Latest weather observations for QLD | Other Formats
Station Details ID: 200879 Name: ARLINGTON REEF Lat: -16.72 Lon: 146.11 Height: 0.0 m
Data from the previous 72 hours. | See also: Recent months at Arlington Reef
Date/Time
EST
Temp
°C
App
Temp
°C
Dew
Point
Rel
Hum
%
Delta-T
°C
Wind Press
QNH
hPa
Press
MSL
hPa
Rain
since 9 am
mm
Dir
 
Spd
km/h
Gust
km/h
Spd
kts
Gust
kts
31/09:30pm - - - - - ENE 9 13 5 7 1008.2 1008.2 -
31/09:00pm - - - - - ENE 11 13 6 7 1008.3 1008.3 -
31/08:30pm - - - - - E 13 15 7 8 1007.8 1007.8 -
31/08:00pm - - - - - ESE 17 20 9 11 1007.1 1007.1 -
31/07:30pm - - - - - ESE 17 20 9 11 1006.7 1006.7 -
31/07:00pm - - - - - ESE 13 17 7 9 1006.6 1006.6 -
31/06:30pm - - - - - ESE 15 17 8 9 1006.3 1006.3 -
31/06:00pm - - - - - SE 11 15 6 8 1006.0 1006.0 -
31/05:30pm - - - - - SE 11 15 6 8 1005.9 1005.9 -
31/05:00pm - - - - - ESE 15 19 8 10 1005.4 1005.4 -
31/04:30pm - - - - - SE 17 20 9 11 1005.2 1005.2 -
31/04:00pm - - - - - SE 17 19 9 10 1004.8 1004.8 -
31/03:30pm - - - - - SE 19 22 10 12 1005.0 1005.0 -
31/03:00pm - - - - - SE 20 24 11 13 1005.2 1005.2 -
31/02:30pm - - - - - SE 19 24 10 13 1005.3 1005.3 -
31/02:00pm - - - - - SE 19 22 10 12 1005.8 1005.8 -
31/01:30pm - - - - - SE 17 20 9 11 1005.9 1005.9 -
31/01:00pm - - - - - SE 15 19 8 10 1006.2 1006.2 -
31/12:30pm - - - - - SE 17 20 9 11 1006.3 1006.3 -
31/12:00pm - - - - - SE 17 20 9 11 1006.7 1006.7 -
31/11:30am - - - - - SE 9 13 5 7 1007.2 1007.2 -
31/11:00am - - - - - SE 7 9 4 5 1007.4 1007.4 -
31/10:30am - - - - - SSE 6 7 3 4 1007.6 1007.6 -
31/10:00am - - - - - CALM 0 4 0 2 1007.8 1007.8 -
31/09:30am - - - - - ESE 4 6 2 3 1007.8 1007.8 -
31/09:00am - - - - - S 4 6 2 3 1007.8 1007.8 -
31/08:30am - - - - - CALM 0 2 0 1 1008.0 1008.0 -
31/08:00am - - - - - CALM 0 0 0 0 1008.1 1008.1 -
31/07:30am - - - - - NW 4 6 2 3 1007.7 1007.7 -
31/07:00am - - - - - WNW 6 7 3 4 1007.2 1007.2 -
31/06:30am - - - - - W 6 9 3 5 1007.1 1007.1 -
31/06:00am - - - - - SSW 7 11 4 6 1006.8 1006.8 -
31/05:30am - - - - - SSW 7 9 4 5 1006.6 1006.6 -
31/05:00am - - - - - SSE 15 19 8 10 1006.3 1006.3 -
31/04:30am - - - - - S 19 20 10 11 1006.1 1006.1 -
31/04:00am - - - - - S 22 28 12 15 1006.0 1006.0 -
31/03:30am - - - - - S 22 26 12 14 1006.2 1006.2 -
31/03:00am - - - - - S 26 30 14 16 1006.2 1006.2 -
31/02:30am - - - - - S 26 33 14 18 1006.2 1006.2 -
31/02:00am - - - - - S 30 33 16 18 1006.3 1006.3 -
31/01:30am - - - - - SSE 30 35 16 19 1006.6 1006.6 -
31/01:00am - - - - - SSE 39 46 21 25 1006.8 1006.8 -
31/12:30am - - - - - SSE 44 52 24 28 1006.6 1006.6 -
31/12:08am - - - - - ESE 30 57 16 31 1006.6 1006.6 -
31/12:00am - - - - - ESE 20 26 11 14 1007.0 1007.0 -
 
Date/Time
EST
Temp
°C
App
Temp
°C
Dew
Point
Rel
Hum
%
Delta-T
°C
Wind Press
QNH
hPa
Press
MSL
hPa
Rain
since 9 am
mm
Dir
 
Spd
km/h
Gust
km/h
Spd
kts
Gust
kts
30/11:30pm - - - - - E 15 17 8 9 1007.1 1007.1 -
30/11:00pm - - - - - ESE 13 15 7 8 1007.2 1007.2 -
30/10:30pm - - - - - ESE 9 13 5 7 1007.2 1007.2 -
30/10:00pm - - - - - ESE 9 13 5 7 1006.9 1006.9 -
30/09:30pm - - - - - ESE 9 13 5 7 1006.4 1006.4 -
30/09:00pm - - - - - SE 13 17 7 9 1006.2 1006.2 -
30/08:30pm - - - - - SE 15 17 8 9 1006.1 1006.1 -
30/08:00pm - - - - - SE 15 17 8 9 1005.9 1005.9 -
30/07:30pm - - - - - ESE 15 19 8 10 1005.2 1005.2 -
30/07:00pm - - - - - ESE 15 17 8 9 1004.8 1004.8 -
30/06:30pm - - - - - E 13 17 7 9 1004.5 1004.5 -
30/06:00pm - - - - - ESE 17 20 9 11 1004.1 1004.1 -
30/05:30pm - - - - - SE 17 19 9 10 1004.1 1004.1 -
30/05:00pm - - - - - SE 20 24 11 13 1003.8 1003.8 -
30/04:30pm - - - - - ESE 20 24 11 13 1003.6 1003.6 -
30/04:00pm - - - - - ESE 22 26 12 14 1003.3 1003.3 -
30/03:30pm - - - - - ESE 20 24 11 13 1003.4 1003.4 -
30/03:00pm - - - - - ESE 20 24 11 13 1003.7 1003.7 -
30/02:30pm - - - - - ESE 19 22 10 12 1003.9 1003.9 -
30/02:00pm - - - - - ESE 17 20 9 11 1004.3 1004.3 -
30/01:30pm - - - - - SE 17 20 9 11 1004.5 1004.5 -
30/01:00pm - - - - - SE 17 19 9 10 1004.9 1004.9 -
30/12:30pm - - - - - SE 17 20 9 11 1005.2 1005.2 -
30/12:00pm - - - - - SE 17 20 9 11 1005.5 1005.5 -
30/11:30am - - - - - SSE 19 24 10 13 1005.9 1005.9 -
30/11:00am - - - - - SSE 17 20 9 11 1006.0 1006.0 -
30/10:30am - - - - - S 17 19 9 10 1006.0 1006.0 -
30/10:00am - - - - - S 17 19 9 10 1006.1 1006.1 -
30/09:30am - - - - - S 20 22 11 12 1006.0 1006.0 -
30/09:00am - - - - - S 19 24 10 13 1005.9 1005.9 -
30/08:30am - - - - - S 17 20 9 11 1005.7 1005.7 -
30/08:00am - - - - - SSE 13 15 7 8 1005.7 1005.7 -
30/07:30am - - - - - S 11 15 6 8 1005.8 1005.8 -
30/07:00am - - - - - SSE 6 9 3 5 1005.5 1005.5 -
30/06:30am - - - - - S 9 13 5 7 1005.1 1005.1 -
30/06:00am - - - - - SSE 13 15 7 8 1004.6 1004.6 -
30/05:30am - - - - - SSE 11 15 6 8 1004.3 1004.3 -
30/05:00am - - - - - SE 7 9 4 5 1004.1 1004.1 -
30/04:30am - - - - - S 9 11 5 6 1004.1 1004.1 -
30/04:00am - - - - - SSE 4 6 2 3 1003.9 1003.9 -
30/03:30am - - - - - SSE 6 7 3 4 1003.9 1003.9 -
30/03:00am - - - - - S 7 9 4 5 1003.8 1003.8 -
30/02:30am - - - - - S 7 9 4 5 1003.9 1003.9 -
30/02:00am - - - - - SSE 7 9 4 5 1004.1 1004.1 -
30/01:30am - - - - - S 9 11 5 6 1004.5 1004.5 -
30/01:00am - - - - - SSW 6 7 3 4 1004.7 1004.7 -
30/12:30am - - - - - SW 4 6 2 3 1005.0 1005.0 -
30/12:00am - - - - - SW 2 6 1 3 1005.3 1005.3 -
 
Date/Time
EST
Temp
°C
App
Temp
°C
Dew
Point
Rel
Hum
%
Delta-T
°C
Wind Press
QNH
hPa
Press
MSL
hPa
Rain
since 9 am
mm
Dir
 
Spd
km/h
Gust
km/h
Spd
kts
Gust
kts
29/11:30pm - - - - - CALM 0 0 0 0 1005.5 1005.5 -
29/11:00pm - - - - - SSW 2 4 1 2 1005.6 1005.6 -
29/10:30pm - - - - - S 4 6 2 3 1005.4 1005.4 -
29/10:00pm - - - - - S 4 6 2 3 1005.1 1005.1 -
29/09:30pm - - - - - CALM 0 4 0 2 1004.8 1004.8 -
29/09:00pm - - - - - CALM 0 2 0 1 1004.6 1004.6 -
29/08:30pm - - - - - SE 2 4 1 2 1004.5 1004.5 -
29/08:00pm - - - - - SE 4 6 2 3 1004.2 1004.2 -
29/07:30pm - - - - - CALM 0 0 0 0 1004.0 1004.0 -
29/07:00pm - - - - - CALM 0 0 0 0 1003.5 1003.5 -
29/06:30pm - - - - - E 6 6 3 3 1003.1 1003.1 -
29/06:00pm - - - - - SE 7 7 4 4 1002.7 1002.7 -
29/05:30pm - - - - - ESE 4 4 2 2 1002.3 1002.3 -
29/05:00pm - - - - - CALM 0 4 0 2 1002.0 1002.0 -
29/04:30pm - - - - - ESE 6 6 3 3 1001.6 1001.6 -
29/04:00pm - - - - - E 6 6 3 3 1001.5 1001.5 -
29/03:30pm - - - - - ENE 7 9 4 5 1001.6 1001.6 -
29/03:00pm - - - - - E 9 11 5 6 1001.8 1001.8 -
29/02:30pm - - - - - ESE 9 11 5 6 1002.1 1002.1 -
29/02:00pm - - - - - ESE 9 11 5 6 1002.2 1002.2 -
29/01:30pm - - - - - SE 11 13 6 7 1002.7 1002.7 -
29/01:00pm - - - - - SE 13 15 7 8 1002.7 1002.7 -
29/12:30pm - - - - - SE 9 13 5 7 1002.9 1002.9 -
29/12:00pm - - - - - SW 9 9 5 5 1003.1 1003.1 -
29/11:30am - - - - - W 11 13 6 7 1003.2 1003.2 -
29/11:00am - - - - - W 17 20 9 11 1003.2 1003.2 -
29/10:30am - - - - - W 20 24 11 13 1003.3 1003.3 -
29/10:00am - - - - - W 24 28 13 15 1003.1 1003.1 -
29/09:30am - - - - - W 26 30 14 16 1003.1 1003.1 -
29/09:00am - - - - - W 30 35 16 19 1003.2 1003.2 -
29/08:30am - - - - - W 32 35 17 19 1002.8 1002.8 -
29/08:00am - - - - - W 33 39 18 21 1002.6 1002.6 -
29/07:30am - - - - - WNW 28 33 15 18 1002.4 1002.4 -
29/07:00am - - - - - WNW 20 24 11 13 1002.0 1002.0 -
29/06:30am - - - - - NW 19 22 10 12 1001.7 1001.7 -
29/06:00am - - - - - NW 22 24 12 13 1001.4 1001.4 -
29/05:30am - - - - - NW 17 20 9 11 1001.1 1001.1 -
29/05:00am - - - - - NW 20 24 11 13 1001.1 1001.1 -
29/04:30am - - - - - NW 22 24 12 13 1001.2 1001.2 -
29/04:00am - - - - - NW 22 26 12 14 1001.2 1001.2 -
29/03:30am - - - - - NW 26 28 14 15 1001.1 1001.1 -
29/03:00am - - - - - NW 28 30 15 16 1001.0 1001.0 -
29/02:30am - - - - - NW 28 32 15 17 1001.0 1001.0 -
29/02:00am - - - - - NNW 24 30 13 16 1001.0 1001.0 -
29/01:30am - - - - - NNW 28 33 15 18 1001.2 1001.2 -
29/01:00am - - - - - NNW 24 30 13 16 1001.6 1001.6 -
29/12:30am - - - - - NNW 22 26 12 14 1002.2 1002.2 -
29/12:00am - - - - - NNW 17 19 9 10 1002.4 1002.4 -
 
Date/Time
EST
Temp
°C
App
Temp
°C
Dew
Point
Rel
Hum
%
Delta-T
°C
Wind Press
QNH
hPa
Press
MSL
hPa
Rain
since 9 am
mm
Dir
 
Spd
km/h
Gust
km/h
Spd
kts
Gust
kts
28/11:30pm - - - - - NNW 17 20 9 11 1002.6 1002.6 -
28/11:00pm - - - - - NNW 17 19 9 10 1002.7 1002.7 -
28/10:30pm - - - - - NNW 15 19 8 10 1002.8 1002.8 -
28/10:00pm - - - - - NNW 19 20 10 11 1002.6 1002.6 -

Other Formats:

Comma delimited format used in spreadsheet applications
http://www.bom.gov.au/fwo/IDQ60801/IDQ60801.94284.axf

JavaScript Object Notation format (JSON) in row-major order
http://www.bom.gov.au/fwo/IDQ60801/IDQ60801.94284.json